Location: Larkspur
(54.4391°N, 113.7691°W)
Time: 22:58:27
(UTC+00:00)

MOZHAYETS 4 - Visible Passes

Search period start: 29 November 2023 00:00
Search period end: 09 December 2023 00:00
Orbit: 656 x 672 km, 98.3° (Epoch: 29 November)

Date Brightness Start Highest point End Pass type
(mag) Time Alt. Az. Time Alt. Az. Time Alt. Az.
29 Nov 8.2 00:11:39 10° N 00:16:13 64° WNW 00:20:47 10° SSW visible
29 Nov 10.4 01:50:06 10° NNW 01:52:22 14° NW 01:54:38 10° W visible
30 Nov 9.1 00:42:44 10° N 00:46:59 37° WNW 00:51:12 10° SW visible
01 Dec 9.9 01:14:00 10° N 01:17:36 23° WNW 01:21:11 10° WSW visible
02 Dec 8.1 00:07:17 10° NNE 00:11:54 70° WNW 00:16:29 10° SSW visible
02 Dec 10.4 01:45:35 10° NNW 01:48:06 15° NW 01:50:36 10° W visible
03 Dec 9.0 00:38:20 10° N 00:42:39 40° WNW 00:46:56 10° SW visible
04 Dec 9.8 01:09:33 10° N 01:13:16 25° WNW 01:17:00 10° WSW visible
05 Dec 8.0 00:02:53 10° NNE 00:07:31 76° WNW 00:12:07 10° SSW visible
05 Dec 10.3 01:41:03 10° NNW 01:43:46 16° NW 01:46:30 10° W visible
06 Dec 8.8 00:33:54 10° N 00:38:16 43° WNW 00:42:38 10° SW visible
07 Dec 9.7 01:05:04 10° N 01:08:54 26° WNW 01:12:44 10° WSW visible
07 Dec 7.9 23:58:26 10° NNE 00:03:05 83° WNW 00:07:42 10° SSW visible
08 Dec 10.3 01:36:29 10° NNW 01:39:24 17° NW 01:42:19 10° W visible
